User: anonymous   Login
Location: Brad
(46.1333°N, 22.7833°E)
Time: 10:07:53
(UTC+00:00)
Language:

CZ-4B R/B - Orbit

View from above orbital plane
View from above orbital plane
View from above satellite
View from above satellite

Ground track
Ground track

The orbit data is extracted from the following two-line orbital elements,

1 38039U 11079B   24206.22501778  .00012504  00000-0  72832-3 0  9994
2 38039  98.4082 323.2054 0154718 164.8308 195.7632 15.02540004685262
Epoch (UTC): 24 July 2024 05:24:01
Eccentricity: 0.0154718
inclination: 98.4082°
perigee height: 452 km
apogee height: 666 km
right ascension of ascending node: 323.2054°
argument of perigee: 164.8308°
revolutions per day: 15.02540004
mean anomaly at epoch: 195.7632°
orbit number at epoch: 68526

The dashed part of the orbit path shows where the satellite is in the earth's shadow,  

DLR